Jackson Hole, USA 16 day weather forecast

Slopes altitude range 1925 m - 3185m

Number of lifts: 12 Pistes: 116km

In some cases the lift and piste totals shown are for the ski domain (e.g. Three Valleys) rather than individual resort (e.g. Courchevel)

Overview

The 16 day weather forecast is fully updated 4 times every day.

    • Thu 17 JAN 2019
    • Thu 17
    • -4C -4C
    • Fri 18 JAN 2019
    • Fri 18
    • -6C -4C
    • Sat 19 JAN 2019
    • Sat 19
    • -11C -9C
    • Sun 20 JAN 2019
    • Sun 20
    • -2C -1C
    • Mon 21 JAN 2019
    • Mon 21
    • -5C -4C
    • Tue 22 JAN 2019
    • Tue 22
    • -21C -17C
    • Wed 23 JAN 2019
    • Wed 23
    • -12C -11C
    • Thu 24 JAN 2019
    • Thu 24
    • -9C -7C
    • Fri 25 JAN 2019
    • Fri 25
    • -14C -13C
    • Sat 26 JAN 2019
    • Sat 26
    • -13C -12C
    • Sun 27 JAN 2019
    • Sun 27
    • -13C -11C
    • Mon 28 JAN 2019
    • Mon 28
    • -14C -10C
    • Tue 29 JAN 2019
    • Tue 29
    • -12C -7C
    • Wed 30 JAN 2019
    • Wed 30
    • -6C -4C
    • Thu 31 JAN 2019
    • Thu 31
    • -6C -2C
    • Fri 01 FEB 2019
    • Fri 01
    • -3C -1C

Date:

Time Type 0°C level Temp Chill Snow Cloud Speed Gust Dir Press
18:00 1754m -4°C -4_5 8cm 100% 5mph 9mph 1011mB
21:00 2117m -4°C -4_4 9cm 100% 4mph 12mph 1009mB
0:00 2099m -4°C -4_5 12cm 100% 5mph 11mph 1009mB
3:00 1666m -4°C -4_4 1cm 100% 4mph 5mph 1011mB
6:00 1671m -5°C -5_5 1cm 100% 5mph 12mph 1013mB
9:00 1567m -5°C -5_5 2cm 100% 5mph 15mph 1015mB
12:00 1458m -4°C -4_4 3cm 100% 4mph 7mph 1018mB
15:00 1376m -6°C -6_3 1cm 100% 3mph 3mph 1022mB
18:00 1697m -4°C -4_4 2cm 100% 4mph 7mph 1024mB
21:00 1783m -4°C -4_5 1cm 100% 5mph 10mph 1024mB
0:00 1402m -6°C -6_5 1cm 100% 5mph 10mph 1028mB
3:00 1175m -8°C -8_4 1cm 100% 4mph 7mph 1032mB
6:00 1031m -9°C -9_4 1cm 100% 4mph 6mph 1033mB
9:00 728m -11°C -11_4 1cm 100% 4mph 5mph 1033mB
12:00 1010m -9°C -9_4 2cm 100% 4mph 8mph 1032mB
15:00 1162m -8°C -8_4 1cm 100% 4mph 6mph 1032mB
18:00 1539m -5°C -5_4 4cm 100% 4mph 7mph 1030mB
21:00 1927m -5°C -5_4 2cm 100% 4mph 7mph 1027mB
0:00 1879m -5°C -5_5 3cm 100% 5mph 10mph 1026mB
3:00 1864m -3°C -3_5 3cm 100% 5mph 8mph 1026mB
6:00 1976m -3°C -3_5 7cm 100% 5mph 9mph 1024mB
9:00 2106m -2°C -2_6 3cm 100% 6mph 12mph 1021mB
12:00 2160m -1°C -1_8 6cm 100% 8mph 28mph 1020mB
15:00 2068m -1°C -1_8 1cm 100% 8mph 21mph 1019mB
18:00 2203m -1°C -1_8 1cm 100% 8mph 19mph 1017mB
21:00 2227m -1°C -1_8 1cm 100% 8mph 21mph 1012mB
0:00 2056m -2°C -2_7 1cm 100% 7mph 24mph 1011mB
3:00 1855m -3°C -3_7 4cm 100% 7mph 15mph 1010mB
6:00 1760m -4°C -4_5 8cm 100% 5mph 10mph 1007mB
9:00 1642m -5°C -5_3 2cm 100% 3mph 5mph 1005mB
12:00 1583m -4°C -4_2 4cm 100% 2mph 2mph 1005mB
15:00 1602m -5°C -5_4 1cm 100% 4mph 8mph 1008mB
18:00 1626m -5°C -5_6 2cm 100% 6mph 12mph 1010mB
21:00 1660m -5°C -5_6 0cm 100% 6mph 12mph 1012mB
0:00 1213m -7°C -7_4 1cm 99% 4mph 7mph 1018mB
3:00 86m -15°C -15_4 0cm 58% 4mph 5mph 1026mB
6:00 0m -17°C -17_4 0cm 29% 4mph 4mph 1030mB
9:00 0m -19°C -19_3 0cm 0% 3mph 3mph 1033mB
12:00 0m -17°C -17_1 0cm 0% 1mph 1mph 1036mB
15:00 0m -21°C -21_1 0cm 0% 1mph 1mph 1039mB
18:00 560m -12°C -12_4 0cm 14% 4mph 7mph 1035mB
21:00 899m -12°C -12_6 1cm 98% 6mph 10mph 1032mB
0:00 738m -12°C -12_5 1cm 99% 5mph 12mph 1032mB
3:00 656m -11°C -11_6 1cm 100% 6mph 15mph 1035mB
6:00 557m -12°C -12_5 1cm 100% 5mph 9mph 1036mB
9:00 564m -12°C -12_5 1cm 100% 5mph 10mph 1036mB
12:00 586m -11°C -11_5 2cm 100% 5mph 9mph 1035mB
15:00 566m -11°C -11_5 1cm 100% 5mph 9mph 1035mB
18:00 968m -9°C -9_5 3cm 100% 5mph 10mph 1031mB
21:00 1131m -9°C -9_5 3cm 100% 5mph 9mph 1027mB
0:00 1135m -9°C -9_4 6cm 100% 4mph 7mph 1026mB
3:00 1116m -8°C -8_3 2cm 100% 3mph 5mph 1028mB
6:00 1176m -8°C -8_2 2cm 100% 2mph 3mph 1030mB
9:00 1050m -9°C -9_3 1cm 97% 3mph 4mph 1031mB
12:00 1219m -7°C -7_3 1cm 98% 3mph 4mph 1031mB
15:00 1333m -7°C -7_5 1cm 100% 5mph 10mph 1031mB
18:00 1405m -6°C -6_7 2cm 100% 7mph 20mph 1031mB
21:00 1440m -6°C -6_6 1cm 97% 6mph 11mph 1031mB
0:00 905m -9°C -9_3 1cm 69% 3mph 4mph 1035mB
3:00 348m -12°C -12_3 0cm 54% 3mph 4mph 1040mB
6:00 94m -13°C -13_4 0cm 33% 4mph 5mph 1043mB
9:00 68m -14°C -14_4 0cm 3% 4mph 5mph 1044mB
12:00 127m -13°C -13_4 0cm 16% 4mph 5mph 1044mB
15:00 75m -13°C -13_4 0cm 46% 4mph 5mph 1045mB
18:00 1218m -6°C -6_3 0cm 25% 3mph 5mph 1041mB
21:00 1424m -6°C -6_4 0cm 33% 4mph 6mph 1037mB
0:00 820m -9°C -9_1 0cm 49% 1mph 1mph 1037mB
3:00 375m -12°C -12_4 0cm 7% 4mph 5mph 1040mB
6:00 243m -12°C -12_4 0cm 4% 4mph 5mph 1040mB
9:00 123m -13°C -13_4 0cm 5% 4mph 5mph 1039mB
12:00 89m -12°C -12_5 0cm 3% 5mph 5mph 1037mB
15:00 98m -13°C -13_5 0cm 16% 5mph 5mph 1035mB
18:00 1397m -5°C -5_3 0cm 27% 3mph 6mph 1030mB
21:00 1614m -5°C -5_3 0cm 28% 3mph 8mph 1026mB
0:00 920m -8°C -8_1 0cm 18% 1mph 1mph 1028mB
3:00 518m -11°C -11_4 0cm 56% 4mph 5mph 1032mB
6:00 369m -12°C -12_5 0cm 61% 5mph 5mph 1033mB
9:00 251m -12°C -12_5 0cm 66% 5mph 6mph 1032mB
12:00 197m -11°C -11_5 0cm 55% 5mph 5mph 1031mB
Morning 0mm 0 905m -14°C -14_1 0cm 1% 1mph 2mph 1026mB
Afternoon 0mm 0 39m -10°C -10_5 0cm 0% 5mph 5mph 1034mB
Morning 0mm 0 1123m -14°C -14_5 0cm 35% 5mph 9mph 1027mB
Afternoon 0.046875mm 0 718m -7°C -7_4 1cm 87% 4mph 5mph 1030mB
Morning 0.046875mm 0 1642m -10°C -10_4 1cm 96% 4mph 8mph 1024mB
Afternoon 0.0625mm 0 1441m -4°C -4_3 1cm 95% 3mph 4mph 1024mB
Morning 0.0520833mm 0 1923m -5°C -5_4 1cm 95% 4mph 8mph 1020mB
Afternoon 0.0208333mm 0 1318m -2°C -2_5 0cm 97% 5mph 7mph 1020mB
Morning 0.182292mm 0 1926m -6°C -6_7 1cm 98% 7mph 15mph 1018mB
Afternoon 0.0833333mm 0 1834m -1°C -1_5 1cm 99% 5mph 10mph 1028mB
Morning 0.0364583mm 0 2039m -2°C -2_5 1cm 96% 5mph 11mph 1025mB
Afternoon 0mm 0 968m -1°C -1_6 0cm 55% 6mph 7mph 1027mB

16 day outlook at a glance

Forecast issued: 17/01/2019 23:00:49

Chat

Your comments and questions. In a resort? Let us know what it's like!


Characters left 250

For terms and conditions see Readers Comments on the Cookie and privacy policy page.